Location: La Comballaz
(46.3780°N, 7.0817°E)
Time: 04:42:19
(UTC+00:00)

X-37B - Pass Details

Date: 11 December 2021
Orbit: 334 x 337 km, 45.0° (Epoch: 11 January)

Event Time Altitude Azimuth Distance (km) Brightness Sun altitude
Rises 16:58:54 0° 250° (WSW) 2,100 6.5 -12.2°
Reaches altitude 10° 17:00:56 10° 245° (WSW) 1,265 4.7 -12.5°
Maximum altitude 17:03:41 51° 168° (SSE) 429 0.8 -13.0°
Enters shadow 17:05:04 24° 102° (ESE) 736 1.5 -13.2°
